Wind_Speed
94 94 93 93 93 92 92 92 92 92 92 92 93 93 93 94 95 95 96 96 97 97 97 96 95 94 92 90 88 86 84 82 80 78 76 74 73 72 71 70 70 69 68 67 65 64 62 61 59 58 56 54 52 50 48 47 45 44 43 42 41 41 40 39 39 38 38 37 37 36 36 35 35 34 34 34 34 33 33 32 32 32 32 32 32 32
94 93 93 92 92 92 92 92 92 92 92 93 93 93 94 94 95 96 96 97 97 97 96 95 93 91 89 87 85 83 81 80 78 76 74 73 72 71 70 70 69 68 67 66 64 63 61 60 59 57 55 53 51 50 48 46 45 44 43 42 42 41 41 40 39 39 38 38 37 37 36 36 35 35 34 34 34 34 34 34 34 33 33 33 34 34
93 93 93 92 92 92 92 92 92 92 92 93 93 94 94 95 96 96 97 96 96 95 94 92 90 88 86 85 83 81 79 78 76 74 73 71 71 70 69 69 68 67 66 65 63 62 61 60 58 56 54 53 51 49 47 46 45 44 43 43 42 42 41 41 40 40 39 38 38 37 37 36 36 35 35 35 35 35 35 35 35 35 35 35 35 35
93 92 92 92 92 92 92 92 92 92 93 93 94 94 95 95 96 96 96 95 94 93 91 89 88 86 84 82 81 79 77 76 74 73 71 71 70 69 69 68 67 66 65 64 63 61 60 59 57 56 54 52 50 48 47 46 45 44 44 43 43 43 42 42 41 41 40 39 39 38 38 37 37 36 36 36 36 36 36 36 36 37 37 37 37 37
92 92 92 92 92 92 92 92 92 92 93 93 94 95 95 95 95 95 94 93 92 90 88 87 85 83 82 80 79 77 76 74 73 71 71 70 69 69 68 67 66 65 64 63 62 61 60 58 56 55 53 51 49 48 47 46 45 45 44 44 43 43 43 42 42 42 41 41 40 40 39 38 38 38 37 37 37 37 37 37 37 38 38 39 39 39
92 92 92 91 92 92 92 92 92 93 93 94 94 94 94 94 94 93 92 90 89 87 86 84 83 81 80 78 77 75 74 73 71 71 70 69 69 68 67 66 65 64 63 62 61 60 59 57 55 54 52 50 49 48 47 46 46 45 45 44 44 44 43 43 43 42 42 42 41 41 40 40 40 39 39 39 38 38 38 38 39 39 40 40 41 41
92 92 91 92 92 92 92 92 93 93 93 94 94 94 93 92 91 90 89 87 86 85 83 82 81 79 78 76 75 74 72 71 70 70 69 68 67 67 66 65 64 63 62 61 60 59 58 56 55 53 51 50 48 48 47 46 46 46 45 45 45 44 44 44 43 43 43 43 42 42 42 42 41 41 41 41 40 40 40 40 40 40 41 41 42 43
92 92 92 92 92 92 92 93 93 92 92 93 92 92 91 90 88 87 86 85 83 82 81 80 79 77 76 75 74 72 71 70 70 69 68 67 66 66 65 64 63 62 62 61 60 59 57 55 54 52 50 49 48 48 47 47 46 46 46 46 45 45 45 45 44 44 44 44 43 43 43 43 43 43 43 43 43 43 42 42 42 42 42 43 43 44
92 92 92 92 92 92 92 92 92 91 91 90 90 89 88 87 86 85 84 82 81 80 79 78 77 76 75 73 72 71 70 70 69 68 67 66 65 64 64 63 62 62 61 60 59 58 56 55 53 51 50 49 48 48 48 47 47 47 46 46 46 46 46 45 45 45 45 44 44 44 44 44 44 44 44 44 45 45 45 45 45 45 45 45 45 45
91 91 91 91 91 91 91 91 90 89 88 88 87 86 85 84 83 82 82 81 79 78 77 76 75 74 73 72 71 70 70 69 68 67 66 65 64 64 63 62 62 61 61 60 59 57 56 54 53 51 50 49 49 48 48 48 48 47 47 47 47 47 47 46 46 46 46 45 45 45 45 45 45 45 46 46 46 46 47 47 47 47 47 47 47 47
91 90 90 90 90 89 89 88 88 87 86 85 84 83 82 82 81 80 79 79 78 76 75 74 73 73 72 71 70 69 69 68 67 66 65 64 63 63 62 62 62 61 60 59 58 57 55 54 52 51 50 50 49 49 49 49 48 48 48 48 48 48 47 47 47 47 46 46 46 46 46 46 46 46 47 47 48 48 48 49 49 49 49 49 49 49
89 89 88 88 88 87 87 86 85 85 84 83 82 82 81 80 79 78 77 77 76 75 74 73 72 71 71 70 70 69 67 66 65 64 63 63 62 62 62 62 61 61 60 59 58 56 55 54 53 52 51 50 50 50 50 50 49 49 49 49 49 48 48 48 48 47 47 47 47 47 47 47 47 47 48 48 49 49 49 50 50 51 51 51 51 51
88 87 87 86 86 85 84 84 83 82 81 81 80 80 79 78 77 76 75 75 74 73 72 72 71 71 70 69 68 67 66 65 64 63 62 62 62 62 62 61 61 60 59 59 57 56 55 54 53 52 52 51 51 51 51 50 50 50 50 50 49 49 49 49 48 48 48 48 48 48 48 48 48 48 49 49 50 50 51 51 52 52 52 53 53 53
86 85 85 84 83 83 82 81 81 80 80 79 78 78 77 76 75 74 73 73 73 72 71 71 70 70 69 67 66 65 64 63 62 62 62 61 61 61 61 61 60 60 59 58 57 56 55 54 53 53 52 52 52 52 52 51 51 51 51 51 50 50 50 49 49 49 49 49 48 48 49 49 49 49 50 50 51 51 52 52 53 53 54 54 55 55
84 83 83 82 81 81 80 79 79 79 78 77 77 76 75 74 73 73 72 72 71 71 70 70 69 68 67 65 64 63 62 62 61 61 61 61 61 61 60 60 60 59 58 57 57 56 55 54 54 53 53 53 53 53 52 52 52 52 52 51 51 51 51 50 50 50 50 50 50 50 50 50 50 50 51 51 52 52 53 53 54 54 55 55 56 57
82 81 80 80 80 79 78 78 77 77 76 76 75 74 73 73 72 72 71 71 70 70 69 68 68 67 65 64 62 61 61 61 61 61 61 61 60 60 59 59 59 58 57 57 56 56 55 54 54 54 54 54 54 53 53 53 53 53 53 52 52 52 51 51 51 51 51 50 51 51 51 51 51 51 52 52 53 53 54 54 55 55 56 57 58 58
80 79 78 78 78 77 77 76 76 75 74 74 73 72 72 71 71 70 70 69 69 68 67 66 65 65 64 62 61 60 60 60 60 60 60 60 60 59 59 58 58 58 57 56 56 56 55 55 55 55 55 54 54 54 54 54 54 53 53 53 53 52 52 52 52 51 51 51 51 51 52 52 52 52 53 53 54 54 55 56 56 57 58 59 59 60
78 77 77 76 76 76 75 74 74 73 73 72 72 71 70 70 69 69 68 67 67 66 65 64 63 62 61 61 60 59 59 59 60 60 60 60 59 58 58 57 57 57 56 56 56 55 55 55 55 55 55 55 55 55 55 54 54 54 54 53 53 53 52 52 52 52 52 52 52 52 52 53 53 53 54 54 55 56 56 57 58 59 60 61 61 62
76 75 75 74 74 74 73 73 72 71 71 70 70 69 69 68 67 67 66 65 64 63 62 62 61 60 60 60 60 59 59 59 59 59 59 59 58 58 57 57 57 56 56 56 56 56 56 56 55 55 55 55 55 55 55 55 54 54 54 54 53 53 53 53 53 52 52 53 53 53 53 53 54 54 55 55 56 57 58 60 61 62 62 63 64 64
74 74 73 72 72 72 71 71 70 70 69 68 68 67 67 66 65 64 63 62 61 61 60 59 59 59 59 59 59 58 58 58 58 58 58 58 58 57 56 56 56 56 56 56 56 56 56 56 56 56 55 55 55 55 55 55 55 54 54 54 54 53 53 53 53 53 53 53 53 54 54 54 55 56 56 57 58 60 61 62 63 64 64 65 65 65
72 72 71 70 70 70 70 69 69 68 67 66 66 65 64 63 62 61 61 60 59 59 58 58 58 58 58 58 58 58 57 57 57 57 57 57 57 56 56 56 56 56 56 56 56 56 56 56 56 56 55 55 55 55 55 55 55 54 54 54 54 53 53 53 53 53 54 54 54 55 55 56 57 57 58 59 61 62 63 64 65 66 66 66 66 66
70 70 69 69 68 68 68 67 66 66 65 64 63 62 61 61 60 59 58 58 58 57 57 57 57 57 57 57 57 57 57 56 56 57 57 56 56 56 55 55 55 56 56 56 56 56 56 56 56 56 55 55 55 55 55 55 55 54 54 54 54 54 54 54 54 54 55 55 56 56 57 57 58 59 60 61 63 64 65 66 67 67 67 67 67 66
68 68 67 67 66 66 65 65 64 63 62 61 60 60 59 58 58 57 57 56 56 56 56 56 56 56 56 56 56 56 56 56 56 56 56 56 56 55 55 55 55 55 56 56 56 56 56 56 56 55 55 55 55 55 55 55 54 54 54 54 54 54 54 54 55 55 56 56 57 58 59 59 60 61 62 63 65 66 67 68 68 68 67 67 67 66
66 65 65 64 64 63 62 62 61 60 59 59 58 57 57 56 56 56 55 55 55 55 55 55 55 55 55 55 55 55 55 55 55 55 55 55 55 55 54 54 55 55 55 55 55 56 56 55 55 55 55 55 55 55 55 54 54 54 54 54 54 55 55 55 56 57 57 58 59 60 60 61 62 63 64 65 66 67 68 68 68 68 67 67 66 66
63 63 62 61 61 60 60 59 58 58 57 57 56 56 55 55 55 55 55 54 54 54 55 55 55 55 55 55 55 55 55 54 54 54 55 55 55 55 54 54 54 55 55 55 55 55 55 55 55 54 54 54 54 54 54 55 55 55 55 55 55 55 56 56 57 58 59 60 61 61 62 63 64 65 66 67 68 69 69 69 68 67 67 66 66 65
60 60 59 59 58 58 57 57 56 56 55 55 54 54 54 54 54 54 54 54 54 54 54 54 54 54 54 54 54 54 54 54 54 54 54 54 54 54 54 54 54 54 55 55 54 54 54 54 54 54 54 54 54 55 55 55 55 55 55 55 56 56 57 58 59 60 61 61 62 63 64 64 65 66 67 68 69 69 69 69 68 67 66 65 64 64
57 57 56 56 55 55 55 54 54 54 54 53 53 53 53 53 53 53 53 53 53 53 53 54 54 54 54 54 54 54 54 54 54 54 53 54 54 54 54 54 54 54 54 54 54 54 54 54 54 54 54 55 55 55 55 55 55 56 56 56 57 58 58 59 60 61 62 63 64 64 65 66 66 67 68 69 69 69 69 68 67 66 65 64 63 62
54 54 54 53 53 53 53 52 52 52 52 52 52 52 52 52 52 52 52 52 52 52 53 53 53 53 53 53 53 53 53 53 53 53 53 53 54 54 54 53 53 54 54 54 54 53 53 54 54 54 55 55 55 56 56 56 56 57 57 58 58 59 60 61 62 63 64 64 65 66 67 67 68 68 68 69 69 69 68 67 65 64 63 62 61 60
52 52 52 51 51 51 51 51 51 51 51 51 51 51 51 51 51 51 51 51 51 52 52 52 52 52 52 52 52 52 52 52 52 52 53 53 53 54 53 53 53 53 53 53 54 53 53 53 54 54 55 56 56 56 57 57 57 58 58 59 60 60 61 62 63 64 65 66 67 68 68 68 68 69 69 69 69 68 67 65 64 62 61 60 59 59
50 50 50 50 50 50 50 50 50 50 50 49 49 49 49 49 50 50 50 50 50 51 51 51 51 51 51 51 52 52 52 52 52 52 52 53 53 53 53 53 53 53 53 53 54 54 54 54 54 54 55 56 57 58 58 58 59 59 60 60 61 62 63 64 64 66 67 67 68 69 69 69 69 69 68 68 68 67 65 64 62 60 59 58 57 57
49 49 49 49 49 49 49 49 49 49 49 49 49 48 49 49 49 49 49 49 49 50 50 50 50 50 50 51 51 51 52 51 51 51 52 52 53 53 53 53 54 53 53 53 54 54 55 55 55 55 56 57 58 58 59 59 60 60 61 61 62 63 64 65 66 67 68 69 69 70 70 69 69 68 68 67 66 65 64 62 60 59 57 56 56 55
49 48 48 48 48 48 48 48 48 48 48 48 48 48 48 48 48 48 48 49 49 49 49 50 50 50 50 50 51 51 51 51 51 51 52 52 53 53 53 54 54 54 54 54 54 55 56 56 57 57 57 58 59 59 60 60 61 61 62 63 64 64 65 66 67 68 69 70 70 70 70 69 68 68 67 66 65 64 62 60 58 57 56 55 54 54
48 48 48 48 48 48 48 48 48 48 48 48 48 48 48 48 48 48 48 48 49 49 49 49 50 50 50 50 51 51 51 51 51 51 52 53 53 54 54 54 54 55 55 55 55 55 56 57 58 58 58 59 59 60 60 61 61 62 63 64 65 66 67 68 69 70 70 71 71 70 70 69 68 67 66 65 63 62 60 58 56 55 54 53 53 53
48 48 48 48 48 48 48 48 48 48 48 49 49 49 49 49 49 49 49 49 49 49 49 50 50 50 51 51 51 52 52 52 52 52 53 53 54 54 55 55 55 55 56 56 57 57 57 58 59 59 60 60 60 60 61 62 62 63 64 65 66 67 68 69 70 71 71 71 71 70 69 68 67 65 64 63 62 60 58 56 55 54 53 52 52 52
48 48 48 48 48 48 48 48 48 48 48 49 49 49 49 49 49 49 49 49 49 50 50 50 50 51 51 52 52 53 53 53 53 53 54 54 55 55 56 56 56 56 57 57 58 58 59 59 60 60 61 61 61 61 62 62 63 64 64 65 67 68 69 70 71 71 71 71 70 69 68 66 65 64 63 62 61 59 57 56 54 53 52 52 52 51
48 48 48 48 48 48 48 48 48 48 48 49 49 49 49 49 49 50 50 50 50 50 50 51 51 51 52 52 53 53 54 54 54 54 55 55 55 56 57 57 57 57 58 59 59 60 60 61 61 61 62 62 63 63 63 63 64 64 65 66 67 68 69 70 70 71 70 70 69 68 66 64 63 62 61 60 59 58 56 55 54 53 52 51 51 51
48 48 48 48 48 48 48 48 48 48 48 49 49 49 49 49 50 50 50 50 50 51 51 51 51 52 52 53 53 54 54 55 55 56 56 56 56 57 57 58 58 58 59 59 60 61 61 62 62 63 63 63 64 64 65 65 65 66 67 67 68 69 70 70 70 69 69 68 67 65 63 62 61 60 59 58 58 56 55 54 53 52 52 52 52 52
48 48 48 48 48 48 48 48 48 48 48 49 49 49 49 50 50 50 50 51 51 51 52 52 52 52 53 53 54 54 55 56 56 56 57 57 57 58 58 59 59 59 59 60 61 62 62 63 63 64 64 64 65 65 66 66 67 67 68 69 69 70 70 70 69 68 67 66 64 62 61 59 58 57 57 56 56 55 54 53 52 52 51 51 51 52
48 48 48 48 48 48 48 48 48 49 49 49 49 49 49 50 50 50 51 51 51 52 52 52 53 53 54 54 54 55 55 56 57 57 57 58 58 58 59 59 60 60 60 61 61 62 63 63 64 65 65 66 66 66 67 67 68 69 70 70 70 70 69 69 67 66 65 63 62 60 59 57 56 55 55 54 54 53 52 52 51 51 51 51 51 52
48 48 48 48 48 48 49 49 49 49 49 49 49 50 50 50 50 51 51 51 52 52 53 53 53 54 54 55 55 56 56 57 57 57 58 58 59 59 59 60 60 61 61 62 62 63 63 64 65 65 66 66 67 68 68 69 69 70 70 71 71 70 69 67 66 64 63 61 60 58 57 56 54 54 53 52 52 51 51 50 50 50 50 50 51 51
48 48 48 49 49 49 49 49 49 49 50 50 50 50 50 51 51 51 52 52 53 53 53 54 54 55 55 55 56 56 57 57 57 58 58 58 59 59 60 60 60 61 62 62 63 63 64 64 65 66 66 67 68 69 69 70 70 70 71 71 70 69 67 66 64 63 61 60 58 57 55 54 53 53 52 51 51 50 49 49 49 49 49 49 50 51
48 48 49 49 49 49 49 50 50 50 50 50 51 51 51 51 52 52 53 53 53 54 54 54 55 55 56 56 56 56 57 57 58 58 58 59 59 60 60 60 61 61 62 63 63 64 64 65 66 66 67 68 69 70 71 71 71 71 70 70 69 68 66 64 62 61 59 58 57 55 54 53 52 52 51 51 50 49 48 48 48 48 48 48 49 50
48 49 49 49 49 50 50 50 50 51 51 51 51 52 52 52 53 53 54 54 54 55 55 55 56 56 57 57 57 57 57 58 58 58 59 59 59 60 60 61 61 62 62 63 64 65 65 66 66 67 68 69 70 71 71 72 71 70 70 68 67 66 64 63 61 59 58 57 56 54 53 53 52 51 51 50 49 49 48 47 47 46 47 47 48 49
49 49 49 50 50 50 51 51 51 52 52 52 53 53 53 53 54 54 55 55 56 56 56 57 57 57 58 58 58 58 58 58 58 59 59 59 60 60 60 61 61 62 63 63 64 65 66 67 68 68 69 70 71 71 72 71 71 70 68 67 65 64 62 61 59 58 57 56 54 53 53 52 51 51 50 50 49 48 47 46 46 45 46 46 47 48
49 50 50 50 51 51 52 52 52 53 53 53 54 54 54 55 55 55 56 57 57 57 58 58 58 59 59 59 59 59 59 59 59 59 60 60 60 61 61 62 62 63 63 64 65 66 67 68 69 70 70 71 71 71 71 71 70 69 67 65 63 62 60 59 57 56 56 55 54 53 52 51 51 50 50 50 49 48 47 46 45 45 45 45 46 47
50 50 51 51 52 52 52 53 53 54 54 54 55 55 55 56 56 57 57 58 58 59 59 59 60 60 60 60 60 60 60 60 60 60 61 61 61 61 62 62 63 63 64 65 66 67 68 69 70 71 71 72 72 71 70 70 69 67 66 64 62 60 59 57 56 55 54 53 53 52 51 50 50 50 50 49 49 48 46 45 44 44 44 44 45 46
50 51 51 52 52 53 53 54 54 55 55 55 56 56 57 57 57 58 58 59 59 60 60 61 61 61 61 61 61 61 61 61 61 62 62 62 62 62 63 63 64 64 65 66 67 68 69 70 70 71 72 72 72 71 70 68 67 66 64 62 60 59 57 56 55 54 53 53 52 51 50 50 50 49 49 49 48 47 46 44 43 43 42 43 44 45
51 52 52 53 53 54 54 54 55 55 56 56 57 57 58 58 58 59 60 60 60 61 61 62 62 62 62 62 62 62 62 62 62 62 62 63 63 64 64 64 65 66 67 67 68 69 70 71 71 71 71 71 71 70 69 67 66 64 62 60 59 57 56 55 54 53 53 52 51 51 50 49 49 49 49 49 48 47 45 44 43 42 41 42 43 44
52 52 53 53 54 54 55 55 56 56 57 57 58 58 59 59 60 60 61 61 62 62 63 63 63 64 64 63 63 63 63 63 63 63 63 64 64 65 65 66 67 67 68 69 70 70 71 71 71 71 70 70 70 69 68 66 64 62 60 59 57 56 55 54 53 53 52 52 51 50 49 49 48 48 48 48 48 47 45 44 42 41 41 41 42 43
53 53 54 54 55 55 56 56 57 57 58 58 59 59 60 60 61 61 62 62 63 63 64 64 65 65 65 65 64 64 64 64 64 64 64 64 65 65 66 67 68 69 70 71 71 72 72 72 72 71 69 68 67 67 66 64 62 60 59 57 56 54 54 53 53 52 51 51 51 50 49 49 48 48 48 48 47 47 45 44 42 41 40 40 41 42
54 54 55 55 56 56 57 57 58 59 59 60 60 61 61 61 62 62 63 63 64 65 65 66 66 66 66 66 65 65 65 65 65 65 65 65 66 66 67 68 69 70 71 72 73 73 73 73 73 71 69 67 65 64 64 63 61 59 57 56 55 54 53 52 52 51 51 50 50 50 49 49 48 48 48 47 47 46 45 44 42 41 40 40 40 41
Wind_Direction
298 299 300 300 301 301 301 302 302 302 302 302 302 302 302 302 302 302 302 303 303 303 304 304 305 305 305 305 305 306 306 306 306 307 307 307 307 307 308 308 308 308 308 308 308 308 308 307 307 307 306 305 304 303 302 301 300 300 299 299 299 300 300 300 300 300 300 300 300 300 300 300 300 300 300 300 299 299 298 296 295 293 291 289 286 283
299 299 300 300 300 301 301 301 301 301 301 301 301 301 301 301 301 301 302 302 303 303 303 304 304 304 305 305 305 305 305 306 306 306 306 307 307 307 307 307 307 307 307 307 307 307 307 307 307 306 305 305 303 302 301 300 299 299 299 299 299 299 299 299 299 299 299 298 298 297 297 297 297 297 297 296 296 295 294 293 292 290 288 286 284 282
299 299 299 300 300 300 300 300 300 300 300 300 300 300 300 301 301 301 302 302 302 303 303 303 304 304 304 304 304 305 305 305 305 306 306 306 306 306 306 306 306 306 306 306 306 306 306 306 306 305 305 304 303 301 300 300 299 298 298 298 298 299 299 299 299 298 298 297 296 295 295 295 294 294 294 293 292 292 291 290 289 287 286 284 282 280
299 299 299 299 299 299 299 299 299 299 299 299 300 300 300 300 301 301 301 302 302 302 303 303 303 303 304 304 304 304 304 305 305 305 306 306 306 306 306 305 305 305 305 305 305 305 305 305 305 305 304 303 302 300 300 299 298 298 298 298 298 298 298 299 298 298 297 296 295 294 293 292 292 291 291 291 290 289 288 287 286 285 283 282 280 279
298 298 298 299 299 299 299 299 299 299 299 299 299 299 300 300 300 301 301 302 302 302 302 303 303 303 303 303 303 304 304 304 305 305 305 305 305 305 305 305 304 304 304 304 304 304 304 304 304 304 303 302 301 300 299 298 297 297 297 297 297 298 298 298 298 297 297 296 295 294 293 291 291 290 289 288 288 287 286 285 283 282 281 280 279 277
298 298 298 298 298 298 298 298 298 298 299 299 299 299 300 300 300 301 301 301 301 302 302 302 302 302 303 303 303 303 304 304 304 305 305 305 304 304 304 303 303 303 303 303 303 304 304 304 303 303 302 301 299 299 298 297 297 297 297 297 297 298 298 298 298 297 296 296 295 294 293 291 290 289 288 287 287 286 284 283 282 281 279 278 277 276
297 297 297 297 297 297 298 298 298 298 298 298 299 299 299 300 300 300 300 301 301 301 301 302 302 302 302 302 302 303 303 303 304 304 304 304 303 303 303 302 302 302 302 302 303 303 303 303 302 302 301 300 299 298 297 297 297 297 297 297 298 298 298 298 297 297 296 295 294 293 293 292 291 290 289 288 287 285 284 283 282 280 279 277 276 275
297 297 297 297 297 297 297 297 298 298 298 298 299 299 299 300 300 300 300 300 300 301 301 301 301 301 302 302 302 302 303 303 303 303 303 303 302 302 302 301 301 301 301 302 302 302 302 302 302 301 300 299 298 298 297 297 297 297 297 298 298 298 298 298 297 297 296 295 294 294 293 292 291 290 289 288 287 286 285 284 282 281 279 277 275 274
296 296 296 297 297 297 297 297 297 298 298 298 298 299 299 299 299 300 300 300 300 300 301 301 301 301 301 301 302 302 302 303 303 303 302 302 302 301 301 301 301 301 301 301 301 302 302 301 301 300 300 299 298 298 297 297 297 298 298 298 299 299 298 298 297 297 296 295 295 294 293 292 292 291 290 289 288 287 286 285 284 282 280 278 276 275
296 296 296 296 296 296 297 297 297 298 298 298 298 298 298 299 299 299 299 299 300 300 300 300 300 301 301 301 301 302 302 302 302 302 302 301 301 300 300 300 300 300 301 301 301 301 301 301 301 300 299 299 298 298 298 298 298 298 299 299 299 299 299 298 297 297 296 296 295 294 293 293 292 291 290 290 289 288 287 286 285 283 282 280 278 276
295 296 296 296 296 296 296 297 297 297 298 298 298 298 298 298 299 299 299 299 299 299 300 300 300 300 300 301 301 301 302 302 301 301 301 300 300 300 300 300 300 300 300 300 301 301 301 301 300 300 299 299 298 298 298 298 299 299 299 300 299 299 299 298 297 297 296 296 295 294 294 293 292 291 291 290 289 288 287 287 286 284 283 282 280 278
295 295 296 296 296 296 296 297 297 297 297 298 298 298 298 298 298 298 298 299 299 299 299 299 300 300 300 300 301 301 301 301 301 300 300 300 299 299 299 299 300 300 300 300 300 300 300 300 300 300 299 299 299 299 299 299 299 300 300 300 299 299 298 298 297 297 296 296 295 294 294 293 292 292 291 290 289 289 288 287 286 285 284 283 281 280
295 295 295 296 296 296 296 297 297 297 297 297 297 297 298 298 298 298 298 298 299 299 299 299 299 299 300 300 300 300 300 300 300 299 299 299 299 299 299 299 299 299 299 300 300 300 300 300 300 300 299 299 299 299 299 300 300 300 300 300 299 299 298 298 297 297 296 296 295 295 294 293 293 292 291 290 290 289 288 287 286 285 284 283 282 281
295 295 295 296 296 296 296 297 297 297 297 297 297 297 297 298 298 298 298 298 298 299 299 299 299 299 299 299 299 299 299 299 299 299 298 298 298 298 298 298 299 299 299 299 299 299 300 300 300 299 299 299 299 299 300 300 300 300 300 300 299 299 299 298 298 297 297 297 296 295 295 294 293 292 292 291 290 289 288 287 286 285 285 284 283 282
295 295 295 296 296 296 296 296 297 297 297 297 297 297 297 298 298 298 298 298 298 298 298 298 298 298 299 299 299 299 299 298 298 298 298 298 298 298 298 298 298 298 298 299 299 299 299 299 299 299 299 299 300 300 300 300 300 300 300 300 300 299 299 299 299 298 298 297 297 296 295 295 294 293 292 291 290 290 289 288 287 286 285 284 283 282
295 295 295 296 296 296 296 296 296 297 297 297 297 297 297 298 298 298 298 298 298 298 298 298 298 298 298 298 298 298 298 298 297 297 297 297 297 297 297 297 298 298 298 298 298 299 299 299 299 299 299 300 300 300 301 301 301 301 300 300 300 300 300 299 299 299 299 298 297 297 296 295 294 294 293 292 291 290 289 288 287 286 285 284 283 282
295 295 295 295 296 296 296 296 297 297 297 297 297 297 297 298 298 298 298 297 297 297 297 297 297 297 297 298 298 298 298 297 297 297 297 297 297 297 297 297 297 297 298 298 298 298 299 299 299 299 299 300 300 301 301 301 301 301 301 300 300 300 300 300 300 299 299 298 298 297 296 295 295 294 293 292 291 290 289 288 287 286 285 284 283 283
295 295 295 296 296 296 296 296 297 297 297 297 297 297 297 297 297 297 297 297 297 297 297 297 297 297 297 297 297 297 297 297 297 297 297 297 297 297 297 297 297 297 298 298 298 298 298 299 299 299 300 300 300 301 301 301 301 301 300 300 300 300 300 300 300 299 299 298 298 297 296 295 295 294 293 292 291 290 289 288 287 286 285 285 284 283
295 295 295 296 296 296 296 297 297 297 297 297 297 297 297 297 297 297 297 296 296 296 296 296 296 296 296 297 297 297 297 297 297 297 297 297 297 297 297 297 297 297 298 298 298 298 298 299 299 299 300 300 301 301 301 301 301 300 300 300 300 300 300 300 300 299 299 298 298 297 296 295 295 294 293 292 291 290 290 289 288 287 286 285 284 284
295 295 296 296 296 297 297 297 297 297 297 297 297 297 297 297 296 296 296 296 296 296 296 296 296 296 296 296 297 297 297 297 297 297 297 297 297 297 298 298 298 298 298 298 298 298 299 299 299 300 300 300 300 301 300 300 300 300 300 300 300 300 300 300 300 299 299 298 298 297 296 296 295 294 293 293 292 291 290 289 288 287 287 286 285 285
296 296 296 296 297 297 297 297 297 297 297 297 297 296 296 296 296 296 296 295 295 295 295 295 296 296 296 296 297 297 297 297 297 297 297 297 297 298 298 298 298 298 298 298 298 298 299 299 299 300 300 300 300 300 300 300 300 300 300 300 300 300 300 300 300 299 299 298 298 297 296 296 295 295 294 293 292 291 290 289 289 288 288 287 287 286
296 296 297 297 297 297 297 297 297 297 297 297 296 296 296 296 296 296 295 295 295 295 295 295 296 296 296 297 297 297 298 298 298 298 298 298 298 298 298 298 298 298 298 298 298 298 299 299 299 300 300 300 300 300 300 300 300 300 300 301 301 301 301 300 300 299 299 298 298 297 297 296 296 295 294 294 293 292 291 290 290 289 289 288 288 287
296 296 297 297 297 297 297 297 297 297 296 296 296 296 296 296 295 295 295 295 295 295 295 296 296 296 297 297 297 298 298 298 298 298 298 298 298 298 298 298 298 298 298 298 298 299 299 299 300 300 300 300 300 300 300 300 300 300 301 301 301 301 301 301 300 300 299 299 298 298 297 297 296 296 295 294 293 293 292 291 291 290 290 290 289 289
296 297 297 297 297 297 297 296 296 296 296 296 296 296 296 295 295 295 295 295 295 296 296 296 297 297 297 298 298 298 298 298 299 299 298 298 299 299 298 298 298 298 298 298 298 299 299 299 300 300 300 300 300 300 300 300 301 301 301 301 301 301 301 301 300 300 299 299 298 298 298 297 297 296 296 295 294 293 293 292 292 292 291 291 290 290
296 297 297 297 297 297 297 296 296 296 296 296 296 296 296 296 296 296 296 296 296 296 297 297 297 298 298 298 298 299 299 299 299 299 299 299 299 299 298 298 298 298 298 298 299 299 299 300 300 300 300 300 300 300 301 301 301 301 302 302 302 302 301 301 300 300 300 299 299 298 298 298 297 297 296 296 295 294 293 293 293 293 293 292 292 291
296 296 297 297 297 297 297 297 297 297 297 297 297 297 297 297 297 297 297 297 297 297 298 298 298 298 299 299 299 299 299 299 299 299 299 299 299 299 298 298 298 298 298 299 299 300 300 300 300 300 300 301 301 301 301 301 301 302 302 302 302 302 301 301 301 300 300 300 299 299 299 299 298 298 297 296 296 295 294 294 294 294 294 293 292 291
296 296 297 297 297 298 298 298 298 298 298 298 298 298 298 298 298 298 298 298 299 299 299 299 299 299 299 299 299 299 299 299 299 299 299 299 299 299 299 299 299 299 299 300 300 301 301 301 301 301 301 301 301 301 301 302 302 302 302 302 302 302 302 301 301 301 300 300 300 300 300 299 299 298 298 297 296 296 295 295 295 295 295 294 293 292
296 297 297 298 298 299 299 299 299 299 300 300 300 300 300 300 300 300 300 300 300 300 300 300 300 300 300 300 299 299 299 299 299 299 299 299 299 299 299 300 300 300 300 301 301 301 301 301 301 301 301 301 301 301 302 302 302 302 302 302 302 302 302 301 301 301 301 301 301 301 301 300 300 299 299 298 297 296 296 296 296 296 295 295 293 292
296 297 298 298 299 299 300 300 300 301 301 301 301 301 301 301 301 301 301 301 301 301 301 301 301 300 300 300 300 299 299 299 300 300 300 300 299 300 300 301 301 301 302 302 302 302 301 301 301 302 301 301 301 302 302 302 302 302 302 302 302 302 302 302 302 302 302 302 302 302 301 301 301 300 299 298 297 297 297 297 297 297 296 295 294 292
297 297 298 299 300 300 301 301 301 302 302 302 302 303 303 303 303 303 303 302 302 302 302 302 301 301 301 301 300 300 300 300 300 301 301 300 300 301 301 301 301 302 302 302 302 302 302 302 301 301 301 301 301 302 302 302 302 303 303 303 303 303 303 303 303 303 303 303 303 303 302 302 301 301 300 299 298 298 298 298 298 297 296 295 294 293
297 298 299 299 300 300 301 301 302 302 303 303 303 303 303 304 304 303 304 303 303 303 303 303 302 302 302 302 301 301 301 301 301 301 301 301 301 301 302 302 302 302 302 302 302 302 302 302 301 301 301 301 301 301 302 302 302 303 303 303 303 303 303 304 304 304 304 304 304 304 303 303 302 301 300 299 299 298 298 298 298 297 296 295 294 293
298 298 299 300 300 301 301 302 302 302 303 303 303 304 304 304 304 304 304 304 304 304 304 304 303 303 303 302 302 302 302 302 302 302 302 301 301 301 302 302 302 302 302 302 302 302 302 302 301 301 301 301 301 301 302 302 303 303 303 304 304 304 304 305 305 305 305 305 305 304 304 303 302 302 301 300 299 299 299 299 298 298 296 295 294 293
298 299 299 300 300 301 301 302 302 303 303 303 304 304 304 304 304 304 304 304 304 304 304 304 304 303 303 303 302 302 302 302 302 302 302 301 301 301 302 302 302 302 302 302 301 301 301 301 301 301 301 301 301 301 302 302 303 303 304 304 305 305 305 306 306 306 306 306 305 305 304 304 303 302 301 300 299 299 299 299 298 297 296 295 294 294
298 299 300 300 301 301 302 302 303 303 303 304 304 304 304 305 304 304 304 304 304 304 304 304 304 303 303 303 302 302 302 302 302 302 301 301 301 301 301 301 301 302 302 301 301 301 301 300 301 301 301 301 301 302 302 303 303 304 304 305 305 306 306 307 307 307 307 306 306 305 305 304 303 302 301 300 300 300 299 299 299 298 297 296 295 294
299 300 300 301 301 302 302 303 303 304 304 304 305 305 305 305 305 305 305 305 305 304 304 304 304 303 303 303 302 302 302 302 302 302 301 301 301 301 301 301 301 301 301 301 301 301 301 301 301 301 301 301 302 302 302 303 304 304 305 305 306 307 307 307 307 307 307 307 306 306 305 304 303 302 302 301 301 300 300 300 299 298 297 296 295 295
299 300 300 301 302 302 303 303 304 304 305 305 305 306 306 306 306 306 306 305 305 305 305 304 304 303 303 303 302 302 302 302 302 302 301 301 301 301 301 301 301 301 301 301 301 301 301 301 301 301 302 302 302 303 303 304 304 305 305 306 307 307 307 307 308 307 307 307 306 306 305 304 303 303 302 301 301 301 301 300 300 299 298 297 296 296
299 300 300 301 301 302 303 303 304 305 305 305 306 306 306 306 306 306 306 306 306 305 305 305 304 304 303 303 302 302 302 302 302 302 301 301 301 301 301 301 301 301 301 301 301 301 301 301 302 302 302 302 303 304 304 305 305 306 306 307 307 307 307 307 307 307 307 306 306 305 304 304 303 302 302 301 301 301 301 301 300 300 299 298 297 297
298 299 300 300 301 302 303 303 304 305 305 306 306 306 306 306 307 307 307 306 306 306 306 305 305 304 304 303 303 302 302 302 302 302 302 302 302 301 301 301 301 301 301 301 301 301 301 302 302 302 303 303 304 304 305 306 306 307 307 307 307 308 308 307 307 307 306 306 305 304 304 303 302 302 301 301 301 301 301 300 300 300 299 299 298 298
298 299 300 300 301 302 303 304 304 305 305 306 306 306 307 307 307 307 307 307 307 306 306 306 305 305 304 304 303 303 303 302 302 302 302 302 302 302 301 301 301 301 301 301 301 301 302 302 302 303 304 304 305 305 306 306 307 307 308 308 308 307 307 307 307 307 306 305 305 304 303 302 302 301 300 300 300 300 300 300 300 300 299 299 299 298
298 298 299 300 301 302 303 304 304 305 305 306 306 306 307 307 307 307 307 307 307 307 307 306 306 305 305 305 304 304 303 303 303 302 302 302 302 302 302 301 301 301 301 301 301 302 302 302 303 304 304 305 305 306 306 307 307 308 308 308 308 308 308 307 307 307 306 305 305 304 303 302 302 301 300 300 300 300 300 300 300 300 299 299 299 299
297 298 299 300 301 302 303 304 304 305 305 306 306 306 307 307 307 307 308 307 307 307 307 307 307 306 306 305 305 304 304 303 303 303 302 302 302 302 302 301 301 301 302 302 302 302 302 303 304 304 305 305 306 306 307 307 308 308 308 308 308 308 308 307 307 307 306 305 305 304 303 302 302 301 300 300 300 300 300 300 299 299 299 299 299 299
297 298 299 300 301 302 303 303 304 304 305 305 306 306 307 307 307 307 308 308 308 308 308 307 307 307 306 306 305 305 304 304 303 303 303 302 302 302 302 302 301 302 302 302 302 303 303 304 304 305 305 306 306 307 307 307 308 308 308 308 308 308 307 307 307 306 306 305 305 304 303 303 302 301 300 300 300 299 300 299 299 299 299 299 299 299
297 298 299 300 301 302 302 303 303 304 305 305 305 306 306 307 307 307 307 307 308 308 308 308 307 307 307 306 306 305 305 304 304 303 303 302 302 302 302 302 302 302 302 302 303 303 304 304 305 305 306 306 307 307 307 308 308 308 308 308 308 308 308 307 307 306 306 305 305 304 303 303 302 301 301 300 300 300 299 299 299 299 299 299 299 299
297 298 298 299 300 301 302 303 303 304 304 305 305 305 306 306 306 307 307 307 307 308 308 308 308 307 307 307 306 306 305 304 304 303 303 303 302 302 302 302 302 303 303 303 304 304 305 305 305 306 306 307 307 307 307 308 308 308 308 308 308 308 308 307 307 306 306 305 304 304 303 303 302 301 301 300 300 299 299 299 299 299 299 299 299 299
296 297 298 299 300 301 302 302 303 303 304 304 305 305 306 306 306 306 307 307 307 308 308 308 308 308 308 307 307 306 306 305 305 304 304 303 303 303 303 303 303 303 304 304 304 305 305 306 306 307 307 307 307 307 308 308 308 308 308 308 308 308 307 307 306 306 305 305 304 304 303 302 302 301 300 300 299 299 299 299 299 299 299 299 299 299
296 297 298 299 300 300 301 302 303 303 304 304 304 305 305 305 306 306 306 307 307 308 308 308 308 308 308 308 307 307 306 306 305 305 304 304 304 304 304 304 304 304 305 305 305 306 306 306 307 307 307 307 307 307 308 308 308 308 308 308 308 307 307 306 306 305 305 304 304 303 303 302 301 301 300 300 299 299 299 299 299 299 299 299 299 298
296 297 298 298 299 300 301 302 302 303 303 304 304 304 305 305 305 306 306 307 307 307 308 308 308 308 308 308 308 307 307 306 306 305 305 305 305 305 305 305 305 305 305 306 306 306 307 307 307 307 308 308 308 308 308 308 308 308 308 307 307 307 306 306 306 305 305 304 303 303 302 302 301 300 300 299 299 299 299 299 299 299 299 299 299 298
295 296 297 298 299 300 300 301 302 302 303 303 304 304 304 305 305 306 306 306 307 307 308 308 308 308 308 308 308 307 307 306 306 306 305 305 305 305 305 306 306 306 306 307 307 307 307 307 307 307 308 308 308 308 308 308 307 307 307 307 307 306 306 306 305 305 304 304 303 303 302 301 301 300 299 299 299 298 298 298 298 299 299 299 299 298
295 296 297 298 299 299 300 301 301 302 302 303 303 304 304 305 305 305 306 306 307 307 308 308 308 308 308 308 308 307 307 306 306 306 306 306 306 306 306 306 307 307 307 307 307 308 308 308 307 307 308 308 308 308 308 307 307 307 307 306 306 306 306 305 305 305 304 304 303 302 302 301 301 300 300 299 299 298 298 298 298 299 299 299 298 298
295 296 296 297 298 299 300 300 301 302 302 303 303 304 304 304 305 305 306 306 307 307 308 308 308 308 308 308 308 307 307 307 306 306 306 306 306 307 307 307 307 308 308 308 308 308 308 308 308 307 307 307 308 307 307 307 306 306 306 306 305 305 305 305 305 304 304 304 303 302 302 301 300 300 299 299 298 298 298 298 299 299 299 299 298 297
294 295 296 297 298 298 299 300 301 301 302 303 303 304 304 304 305 305 306 306 307 307 308 308 308 308 308 308 308 307 307 307 307 307 307 307 307 307 307 308 308 308 308 309 309 309 309 309 309 308 308 307 307 307 307 306 306 306 305 305 305 305 305 305 305 304 304 303 303 302 302 301 301 300 299 299 299 298 298 298 299 299 299 299 298 297
Height
10565 10562 10560 10559 10557 10554 10552 10550 10549 10547 10544 10542 10540 10539 10536 10534 10532 10529 10527 10525 10523 10520 10517 10515 10512 10510 10508 10505 10503 10501 10499 10497 10495 10493 10490 10489 10487 10484 10482 10480 10479 10477 10475 10473 10472 10470 10469 10467 10466 10465 10463 10462 10460 10459 10457 10457 10455 10454 10454 10453 10452 10451 10450 10449 10448 10447 10446 10445 10444 10443 10442 10441 10440 10439 10439 10437 10437 10436 10435 10435 10435 10435 10434 10434 10434 10435
10560 10557 10555 10554 10552 10550 10547 10545 10544 10542 10540 10537 10535 10533 10531 10529 10526 10524 10522 10519 10517 10514 10512 10509 10507 10505 10502 10500 10498 10496 10494 10492 10490 10488 10486 10484 10482 10480 10479 10476 10474 10473 10471 10469 10468 10467 10465 10464 10462 10461 10460 10458 10457 10455 10454 10453 10452 10451 10450 10449 10449 10448 10447 10446 10445 10444 10444 10442 10442 10440 10440 10439 10438 10437 10437 10435 10435 10434 10434 10433 10432 10432 10432 10432 10431 10431
10554 10552 10549 10548 10547 10545 10542 10540 10538 10537 10535 10532 10530 10527 10525 10523 10520 10518 10516 10514 10511 10509 10506 10504 10502 10499 10497 10495 10493 10491 10489 10487 10485 10484 10482 10480 10478 10476 10474 10472 10470 10469 10467 10465 10464 10463 10462 10460 10459 10457 10456 10454 10453 10452 10450 10449 10449 10448 10447 10446 10445 10444 10444 10443 10442 10441 10440 10439 10439 10438 10437 10436 10435 10435 10434 10433 10432 10432 10431 10430 10430 10429 10429 10429 10429 10429
10549 10547 10544 10542 10541 10539 10537 10535 10533 10531 10529 10527 10525 10522 10520 10518 10515 10512 10510 10508 10505 10503 10500 10499 10497 10494 10492 10490 10488 10486 10484 10482 10480 10479 10477 10475 10474 10472 10470 10468 10466 10464 10463 10462 10460 10459 10458 10457 10455 10454 10452 10451 10449 10448 10447 10446 10445 10444 10444 10443 10442 10441 10440 10439 10439 10437 10437 10436 10435 10435 10434 10434 10432 10432 10431 10430 10430 10429 10429 10428 10427 10427 10426 10426 10425 10425
10544 10542 10539 10537 10535 10534 10531 10530 10528 10525 10524 10521 10519 10517 10514 10512 10510 10507 10505 10502 10500 10497 10495 10493 10491 10489 10487 10485 10483 10481 10479 10478 10476 10474 10473 10471 10469 10467 10465 10464 10462 10460 10459 10457 10456 10455 10454 10453 10452 10450 10449 10447 10446 10445 10444 10442 10442 10441 10440 10439 10439 10437 10437 10435 10435 10434 10433 10432 10432 10431 10430 10430 10429 10429 10428 10427 10427 10426 10425 10425 10424 10424 10423 10423 10422 10422
10537 10536 10534 10532 10530 10528 10526 10524 10522 10520 10518 10515 10513 10511 10509 10507 10504 10502 10499 10497 10494 10492 10490 10488 10486 10484 10482 10480 10479 10477 10475 10474 10472 10470 10469 10467 10465 10463 10461 10460 10458 10456 10455 10454 10452 10451 10450 10449 10448 10447 10445 10444 10442 10441 10440 10439 10438 10437 10437 10435 10435 10434 10433 10432 10431 10430 10429 10428 10427 10427 10426 10425 10425 10425 10424 10424 10423 10422 10422 10422 10421 10420 10420 10419 10419 10418
10532 10530 10529 10527 10525 10522 10520 10519 10517 10515 10512 10510 10507 10505 10503 10501 10499 10496 10494 10492 10489 10487 10485 10483 10481 10479 10477 10475 10474 10472 10470 10469 10467 10466 10464 10463 10461 10459 10457 10455 10454 10452 10451 10450 10449 10447 10446 10445 10444 10443 10442 10440 10439 10437 10436 10435 10435 10434 10433 10432 10431 10430 10429 10428 10427 10426 10425 10424 10423 10422 10422 10421 10420 10420 10420 10419 10419 10419 10418 10417 10417 10417 10416 10415 10415 10414
10526 10524 10523 10522 10519 10517 10514 10513 10511 10509 10507 10505 10502 10499 10497 10495 10493 10491 10489 10486 10484 10482 10480 10478 10475 10474 10472 10470 10469 10467 10466 10464 10463 10462 10460 10459 10457 10455 10453 10451 10450 10448 10447 10445 10444 10444 10442 10441 10440 10439 10438 10436 10435 10434 10433 10432 10430 10430 10429 10428 10427 10426 10425 10424 10423 10422 10421 10420 10419 10418 10417 10417 10416 10415 10415 10414 10414 10414 10413 10413 10412 10412 10412 10411 10410 10410
10522 10519 10517 10515 10514 10512 10509 10506 10505 10504 10502 10499 10497 10494 10492 10489 10487 10485 10483 10481 10479 10477 10475 10473 10470 10469 10467 10466 10464 10463 10461 10460 10459 10457 10455 10454 10452 10450 10449 10447 10445 10444 10442 10441 10440 10439 10438 10437 10436 10435 10434 10432 10431 10430 10429 10428 10427 10426 10425 10424 10423 10422 10421 10420 10419 10417 10417 10415 10414 10414 10413 10412 10411 10410 10410 10409 10409 10409 10408 10407 10407 10407 10407 10407 10406 10405
10516 10514 10512 10509 10508 10506 10504 10501 10499 10497 10496 10494 10491 10489 10487 10485 10482 10480 10477 10475 10474 10472 10471 10469 10467 10464 10462 10461 10460 10459 10457 10455 10454 10452 10451 10449 10447 10445 10444 10442 10440 10439 10438 10437 10435 10435 10434 10433 10432 10431 10430 10429 10427 10426 10425 10424 10423 10422 10421 10420 10419 10417 10417 10415 10414 10413 10412 10411 10410 10409 10409 10407 10407 10406 10405 10404 10404 10403 10403 10402 10402 10402 10401 10401 10401 10400
10510 10509 10507 10504 10502 10500 10499 10496 10494 10492 10490 10488 10485 10484 10482 10480 10478 10475 10472 10470 10468 10467 10465 10464 10462 10460 10458 10456 10455 10454 10452 10451 10449 10448 10446 10444 10442 10441 10439 10437 10436 10434 10433 10432 10431 10430 10429 10429 10427 10427 10425 10424 10423 10422 10420 10420 10419 10417 10417 10415 10414 10414 10412 10411 10410 10409 10408 10407 10406 10405 10404 10403 10402 10402 10400 10400 10399 10398 10397 10397 10397 10396 10395 10395 10395 10395
10505 10503 10501 10499 10497 10494 10492 10490 10489 10487 10485 10483 10480 10477 10475 10474 10474 10472 10469 10465 10463 10462 10460 10459 10457 10455 10454 10452 10450 10449 10448 10447 10445 10443 10442 10440 10438 10436 10434 10433 10431 10430 10429 10427 10427 10425 10425 10424 10423 10422 10421 10420 10419 10417 10417 10415 10414 10414 10412 10411 10410 10409 10408 10407 10405 10405 10404 10403 10402 10400 10400 10399 10398 10397 10396 10395 10394 10394 10392 10392 10391 10390 10390 10389 10389 10389
10499 10497 10495 10493 10490 10489 10487 10485 10483 10480 10479 10477 10475 10472 10470 10469 10467 10466 10464 10461 10459 10457 10455 10454 10452 10450 10449 10448 10447 10445 10444 10442 10440 10439 10437 10435 10434 10432 10430 10429 10427 10425 10424 10423 10422 10421 10420 10419 10419 10418 10417 10415 10414 10414 10412 10411 10410 10409 10408 10407 10405 10405 10404 10402 10401 10400 10399 10399 10397 10396 10395 10394 10394 10392 10391 10390 10389 10389 10388 10387 10386 10385 10384 10384 10383 10383
10494 10492 10490 10487 10485 10483 10482 10480 10477 10475 10473 10472 10470 10468 10465 10464 10462 10460 10459 10456 10454 10452 10451 10449 10447 10445 10444 10444 10442 10441 10439 10437 10435 10434 10433 10431 10430 10428 10426 10424 10422 10421 10420 10419 10418 10417 10416 10415 10414 10413 10412 10411 10410 10409 10408 10407 10406 10405 10404 10402 10401 10400 10399 10398 10397 10395 10395 10394 10393 10392 10390 10390 10389 10387 10387 10385 10385 10384 10382 10382 10381 10380 10379 10379 10377 10377
10488 10486 10484 10482 10479 10478 10476 10474 10472 10470 10467 10466 10465 10463 10460 10459 10457 10455 10454 10451 10449 10447 10446 10444 10442 10440 10440 10439 10438 10437 10435 10433 10431 10430 10428 10427 10425 10424 10422 10420 10419 10417 10416 10415 10414 10412 10412 10411 10410 10409 10408 10407 10406 10405 10404 10402 10401 10400 10399 10397 10397 10395 10394 10393 10392 10391 10390 10389 10388 10387 10385 10385 10384 10382 10382 10380 10379 10379 10377 10377 10375 10375 10374 10373 10372 10371
10482 10480 10479 10476 10474 10472 10470 10469 10467 10465 10462 10460 10459 10457 10455 10454 10452 10450 10449 10447 10444 10443 10441 10439 10437 10435 10434 10434 10434 10433 10431 10429 10427 10425 10424 10422 10421 10420 10419 10417 10415 10413 10412 10411 10410 10409 10408 10407 10406 10405 10404 10402 10402 10400 10399 10398 10397 10395 10394 10393 10392 10390 10390 10389 10387 10386 10385 10384 10383 10382 10380 10380 10379 10377 10377 10375 10374 10373 10372 10371 10370 10369 10369 10367 10367 10365
10477 10475 10473 10471 10469 10467 10465 10464 10462 10460 10458 10455 10454 10452 10451 10449 10447 10445 10444 10442 10440 10438 10437 10435 10434 10432 10430 10429 10429 10429 10427 10425 10422 10421 10420 10418 10417 10415 10415 10413 10410 10409 10408 10407 10406 10405 10404 10403 10402 10400 10400 10399 10397 10396 10395 10394 10392 10390 10389 10389 10387 10386 10385 10384 10383 10382 10380 10379 10378 10377 10376 10375 10374 10372 10372 10370 10369 10368 10367 10366 10365 10364 10362 10362 10360 10360
10472 10470 10468 10466 10464 10462 10460 10458 10457 10455 10453 10451 10449 10447 10445 10444 10442 10440 10439 10437 10435 10434 10432 10430 10429 10428 10426 10424 10424 10424 10424 10421 10418 10416 10415 10414 10412 10411 10410 10409 10407 10405 10404 10403 10402 10400 10400 10399 10397 10397 10395 10394 10393 10392 10390 10389 10387 10386 10385 10384 10383 10382 10380 10379 10379 10377 10376 10375 10374 10372 10371 10370 10369 10368 10367 10365 10364 10363 10362 10360 10359 10358 10357 10355 10354 10354
10466 10465 10463 10461 10459 10457 10455 10453 10451 10450 10448 10446 10444 10442 10440 10439 10438 10436 10434 10433 10431 10430 10428 10427 10425 10424 10422 10420 10419 10419 10419 10417 10414 10412 10410 10409 10408 10407 10406 10404 10403 10401 10400 10399 10397 10396 10395 10394 10394 10392 10391 10390 10389 10387 10386 10385 10384 10382 10381 10380 10379 10377 10376 10375 10374 10373 10371 10370 10369 10367 10366 10365 10364 10363 10362 10360 10359 10357 10356 10354 10353 10352 10350 10349 10348 10347
10461 10459 10458 10456 10454 10452 10449 10447 10446 10445 10443 10441 10440 10438 10436 10434 10433 10432 10430 10429 10427 10425 10424 10423 10421 10419 10419 10417 10415 10414 10414 10412 10410 10408 10407 10405 10404 10402 10402 10400 10399 10397 10395 10394 10394 10392 10391 10390 10389 10388 10387 10386 10384 10383 10382 10380 10379 10378 10377 10375 10374 10373 10372 10370 10369 10368 10367 10365 10364 10363 10362 10360 10359 10358 10356 10355 10354 10352 10350 10349 10347 10345 10344 10342 10342 10340
10456 10454 10452 10452 10449 10447 10444 10442 10441 10440 10439 10437 10435 10433 10432 10430 10429 10427 10425 10424 10423 10421 10420 10419 10417 10415 10414 10413 10411 10410 10409 10408 10406 10404 10402 10401 10400 10399 10397 10396 10394 10393 10391 10390 10389 10388 10387 10386 10385 10384 10383 10382 10380 10379 10377 10376 10375 10374 10372 10371 10370 10369 10367 10366 10365 10364 10362 10360 10359 10358 10357 10355 10354 10352 10351 10349 10347 10345 10344 10342 10340 10339 10337 10335 10335 10334
10451 10449 10447 10446 10444 10442 10440 10438 10436 10435 10434 10432 10430 10429 10427 10426 10424 10423 10422 10420 10419 10417 10416 10415 10414 10412 10410 10409 10407 10406 10405 10404 10402 10400 10398 10397 10395 10394 10394 10392 10390 10389 10387 10386 10385 10384 10383 10382 10380 10380 10379 10377 10376 10375 10374 10372 10370 10369 10368 10367 10365 10364 10363 10362 10360 10359 10357 10356 10354 10353 10352 10350 10349 10347 10345 10343 10341 10339 10337 10335 10333 10332 10330 10329 10327 10326
10447 10445 10443 10441 10440 10437 10435 10434 10432 10430 10429 10428 10426 10425 10423 10422 10420 10419 10417 10416 10415 10414 10412 10410 10409 10408 10407 10405 10403 10402 10400 10399 10397 10396 10394 10392 10391 10390 10390 10389 10387 10385 10384 10382 10381 10380 10379 10378 10377 10375 10374 10373 10372 10370 10369 10367 10366 10365 10364 10362 10361 10360 10359 10357 10355 10354 10352 10351 10349 10348 10346 10344 10343 10341 10339 10337 10334 10332 10330 10328 10326 10325 10324 10322 10320 10319
10442 10440 10439 10437 10435 10433 10431 10429 10428 10426 10425 10424 10422 10421 10419 10418 10417 10415 10414 10412 10411 10410 10408 10407 10405 10404 10402 10401 10399 10397 10396 10395 10394 10392 10390 10389 10387 10386 10385 10385 10383 10381 10380 10379 10377 10376 10375 10374 10372 10372 10370 10369 10367 10366 10364 10363 10362 10360 10359 10358 10357 10355 10354 10352 10350 10349 10347 10345 10344 10342 10340 10339 10337 10335 10332 10330 10327 10325 10323 10321 10319 10318 10316 10315 10313 10311
10438 10436 10434 10432 10431 10429 10427 10425 10424 10422 10421 10419 10418 10417 10415 10414 10412 10411 10410 10409 10407 10405 10404 10402 10401 10399 10398 10397 10395 10393 10392 10391 10390 10388 10386 10385 10384 10382 10382 10381 10379 10377 10375 10375 10374 10372 10371 10369 10368 10367 10365 10364 10363 10361 10360 10359 10357 10356 10355 10354 10352 10350 10349 10347 10345 10344 10342 10340 10339 10337 10335 10333 10330 10328 10326 10323 10320 10318 10316 10314 10312 10311 10309 10307 10305 10304
10434 10432 10430 10429 10427 10425 10423 10421 10420 10418 10417 10415 10414 10412 10411 10410 10408 10407 10405 10404 10403 10402 10400 10398 10397 10395 10394 10392 10390 10389 10388 10387 10385 10384 10383 10381 10379 10378 10377 10377 10375 10374 10372 10370 10370 10369 10367 10365 10364 10362 10361 10359 10358 10357 10355 10354 10353 10352 10350 10349 10347 10346 10344 10342 10340 10339 10337 10335 10333 10330 10329 10326 10324 10322 10319 10316 10314 10311 10309 10307 10305 10304 10302 10300 10299 10296
10430 10429 10427 10425 10423 10421 10419 10417 10415 10414 10413 10411 10410 10409 10407 10405 10404 10402 10401 10400 10399 10397 10395 10394 10392 10391 10390 10389 10387 10385 10384 10382 10382 10380 10379 10377 10375 10374 10373 10373 10372 10370 10368 10366 10365 10364 10362 10360 10359 10357 10356 10355 10354 10352 10351 10350 10348 10347 10345 10344 10343 10341 10339 10337 10335 10333 10331 10329 10327 10325 10322 10320 10317 10315 10312 10309 10307 10304 10302 10300 10299 10297 10295 10294 10291 10289
10427 10425 10423 10421 10419 10417 10415 10414 10412 10410 10409 10407 10406 10405 10404 10402 10400 10398 10397 10396 10395 10393 10392 10390 10389 10387 10386 10384 10383 10381 10380 10379 10377 10376 10375 10374 10371 10370 10369 10368 10367 10365 10364 10362 10360 10360 10359 10357 10355 10353 10352 10350 10349 10347 10346 10345 10344 10342 10341 10340 10338 10336 10334 10332 10330 10327 10325 10323 10320 10318 10315 10313 10310 10308 10305 10302 10300 10297 10295 10294 10292 10290 10289 10287 10284 10282
10424 10422 10420 10418 10416 10414 10412 10410 10409 10407 10405 10404 10402 10401 10400 10399 10397 10395 10393 10392 10390 10389 10387 10387 10385 10384 10382 10380 10379 10377 10376 10375 10374 10372 10371 10369 10367 10365 10365 10364 10362 10361 10360 10357 10356 10355 10354 10353 10351 10349 10347 10345 10344 10343 10342 10340 10339 10338 10336 10335 10333 10331 10329 10327 10324 10322 10319 10317 10314 10312 10309 10306 10304 10301 10298 10295 10293 10290 10289 10287 10286 10284 10282 10280 10278 10276
10420 10418 10416 10414 10413 10411 10409 10407 10405 10404 10402 10400 10399 10398 10396 10395 10394 10392 10390 10389 10387 10385 10384 10382 10381 10380 10379 10377 10375 10374 10372 10371 10370 10369 10367 10364 10362 10361 10360 10359 10358 10357 10355 10354 10351 10350 10349 10349 10347 10346 10344 10342 10340 10339 10337 10335 10334 10333 10331 10329 10327 10325 10323 10321 10319 10316 10314 10310 10308 10305 10302 10299 10297 10294 10291 10289 10286 10284 10282 10281 10280 10278 10275 10274 10272 10270
10415 10414 10412 10411 10409 10407 10405 10404 10402 10400 10399 10397 10396 10395 10393 10392 10390 10389 10387 10385 10384 10382 10380 10379 10378 10376 10375 10373 10371 10369 10368 10367 10366 10365 10364 10360 10358 10357 10357 10355 10353 10352 10352 10350 10348 10345 10344 10343 10342 10342 10340 10338 10336 10334 10333 10331 10329 10328 10326 10324 10322 10320 10317 10315 10312 10310 10307 10304 10301 10299 10295 10292 10290 10287 10284 10282 10280 10278 10276 10275 10274 10272 10269 10267 10265 10264
10412 10410 10409 10407 10405 10404 10402 10400 10399 10397 10396 10394 10393 10392 10390 10389 10387 10386 10384 10383 10381 10379 10377 10376 10374 10373 10371 10370 10368 10366 10364 10363 10362 10362 10360 10357 10355 10353 10353 10351 10349 10348 10347 10346 10344 10342 10340 10337 10337 10337 10336 10334 10332 10330 10329 10327 10325 10323 10321 10319 10316 10314 10312 10309 10307 10304 10300 10298 10295 10292 10289 10285 10283 10280 10277 10275 10273 10272 10270 10269 10267 10265 10264 10262 10260 10258
10407 10406 10405 10404 10402 10400 10399 10397 10395 10394 10392 10391 10390 10388 10387 10385 10384 10383 10381 10380 10378 10377 10375 10373 10371 10369 10368 10366 10364 10363 10361 10360 10359 10358 10356 10354 10352 10350 10349 10347 10345 10344 10343 10342 10340 10339 10337 10334 10332 10331 10330 10329 10328 10326 10324 10322 10320 10319 10316 10314 10311 10308 10306 10304 10300 10297 10294 10291 10288 10285 10282 10279 10276 10274 10271 10269 10267 10265 10264 10263 10262 10260 10258 10256 10254 10252
10404 10402 10401 10399 10398 10397 10395 10394 10392 10390 10389 10387 10386 10385 10383 10382 10380 10379 10378 10377 10375 10374 10372 10370 10368 10366 10364 10363 10361 10359 10357 10356 10355 10354 10352 10350 10348 10346 10345 10344 10342 10340 10339 10337 10335 10334 10332 10330 10329 10327 10325 10324 10323 10322 10320 10317 10315 10314 10311 10309 10306 10303 10300 10297 10294 10291 10288 10285 10282 10279 10275 10272 10270 10267 10265 10262 10261 10259 10259 10257 10255 10254 10252 10250 10249 10247
10399 10398 10397 10395 10394 10392 10391 10390 10388 10387 10385 10384 10382 10381 10380 10378 10377 10375 10374 10373 10371 10370 10369 10367 10365 10363 10361 10359 10357 10355 10354 10352 10351 10350 10349 10347 10345 10342 10340 10339 10338 10336 10334 10332 10330 10329 10327 10325 10324 10322 10320 10318 10317 10316 10315 10313 10311 10309 10306 10304 10301 10298 10295 10292 10289 10285 10282 10279 10276 10272 10269 10267 10264 10261 10259 10256 10255 10253 10252 10250 10249 10248 10247 10245 10243 10242
10395 10394 10393 10392 10390 10389 10387 10386 10385 10383 10382 10380 10379 10377 10376 10375 10373 10372 10370 10369 10367 10366 10364 10363 10361 10360 10358 10356 10354 10352 10350 10348 10347 10345 10344 10342 10340 10339 10336 10335 10334 10332 10330 10327 10325 10324 10322 10320 10318 10317 10315 10313 10311 10309 10309 10308 10306 10304 10301 10299 10296 10293 10290 10287 10284 10281 10277 10274 10270 10267 10264 10261 10259 10255 10253 10251 10249 10247 10246 10245 10244 10242 10240 10239 10237 10235
10392 10390 10389 10388 10387 10385 10384 10382 10381 10380 10379 10377 10375 10374 10372 10371 10369 10368 10367 10365 10364 10362 10360 10359 10357 10355 10354 10352 10350 10348 10346 10344 10342 10341 10339 10338 10336 10334 10332 10330 10329 10327 10325 10323 10320 10319 10317 10315 10312 10311 10310 10308 10306 10304 10302 10300 10299 10297 10295 10293 10290 10287 10284 10282 10279 10276 10273 10269 10266 10263 10260 10257 10254 10251 10249 10246 10244 10242 10241 10239 10238 10236 10235 10233 10231 10230
10389 10387 10386 10385 10384 10382 10380 10379 10378 10376 10375 10374 10372 10370 10369 10368 10366 10364 10363 10361 10360 10358 10357 10355 10353 10352 10350 10348 10346 10344 10342 10340 10338 10336 10335 10333 10332 10330 10327 10325 10324 10322 10320 10319 10316 10314 10312 10309 10307 10305 10304 10302 10300 10299 10297 10295 10292 10290 10289 10287 10284 10282 10279 10276 10274 10270 10267 10264 10261 10258 10255 10253 10250 10247 10245 10242 10240 10239 10237 10235 10233 10231 10229 10227 10226 10224
10385 10384 10382 10381 10380 10379 10377 10375 10374 10373 10372 10370 10369 10367 10366 10364 10362 10361 10359 10357 10356 10354 10352 10351 10349 10347 10345 10344 10342 10340 10338 10336 10334 10332 10330 10329 10327 10325 10323 10321 10319 10317 10315 10314 10312 10309 10307 10304 10302 10300 10298 10296 10294 10292 10291 10289 10287 10285 10282 10280 10277 10275 10273 10270 10267 10265 10262 10259 10256 10253 10250 10248 10246 10244 10241 10239 10237 10235 10232 10230 10229 10227 10225 10223 10220 10219
10381 10380 10379 10377 10376 10375 10374 10372 10370 10369 10368 10367 10365 10364 10362 10360 10359 10357 10355 10354 10352 10350 10349 10347 10345 10343 10341 10339 10337 10335 10334 10332 10330 10328 10325 10324 10322 10320 10319 10316 10314 10312 10310 10309 10306 10304 10302 10299 10297 10295 10293 10291 10289 10286 10284 10283 10281 10279 10277 10274 10270 10268 10266 10264 10262 10259 10256 10254 10250 10248 10245 10243 10241 10239 10237 10235 10233 10231 10229 10227 10225 10223 10221 10219 10216 10214
10377 10376 10375 10374 10372 10371 10370 10369 10367 10365 10364 10363 10361 10360 10359 10357 10355 10354 10352 10350 10349 10347 10345 10343 10341 10339 10337 10335 10334 10332 10330 10327 10325 10324 10322 10320 10317 10316 10314 10312 10310 10307 10305 10303 10301 10299 10297 10295 10292 10290 10288 10285 10283 10280 10279 10277 10275 10274 10271 10268 10265 10262 10260 10258 10255 10253 10250 10247 10245 10243 10240 10238 10236 10234 10232 10230 10229 10227 10225 10223 10221 10219 10217 10215 10212 10210
10374 10372 10371 10370 10369 10367 10366 10365 10364 10362 10360 10359 10357 10356 10354 10353 10351 10349 10348 10346 10344 10342 10341 10339 10337 10335 10333 10331 10329 10328 10325 10324 10321 10319 10317 10315 10313 10311 10309 10307 10305 10303 10300 10298 10295 10294 10292 10290 10287 10285 10282 10280 10278 10275 10272 10270 10269 10267 10265 10262 10260 10257 10254 10252 10250 10248 10245 10242 10240 10237 10235 10233 10231 10229 10227 10225 10224 10222 10221 10219 10217 10215 10213 10210 10208 10205
10370 10369 10367 10366 10365 10364 10362 10361 10360 10358 10357 10355 10354 10352 10350 10349 10347 10345 10344 10342 10340 10339 10337 10335 10333 10331 10329 10327 10325 10324 10322 10320 10317 10315 10313 10311 10309 10307 10305 10302 10300 10299 10296 10294 10290 10288 10286 10285 10282 10280 10277 10275 10272 10270 10267 10265 10262 10261 10259 10257 10254 10251 10248 10245 10244 10242 10240 10237 10235 10232 10230 10228 10226 10224 10222 10220 10219 10218 10217 10215 10214 10212 10209 10207 10204 10202
10367 10365 10364 10362 10361 10360 10359 10357 10355 10354 10352 10351 10349 10348 10347 10345 10344 10342 10340 10338 10336 10334 10332 10330 10329 10327 10324 10322 10320 10319 10317 10315 10313 10311 10309 10307 10304 10302 10300 10298 10295 10294 10292 10289 10286 10283 10280 10279 10277 10274 10272 10270 10267 10264 10262 10259 10257 10255 10252 10251 10249 10247 10244 10240 10239 10236 10234 10232 10230 10228 10226 10224 10222 10219 10218 10216 10215 10214 10212 10211 10209 10207 10205 10203 10200 10197
10363 10361 10360 10359 10357 10356 10355 10353 10352 10350 10349 10347 10345 10344 10342 10341 10339 10337 10335 10334 10332 10330 10328 10326 10324 10322 10320 10318 10316 10314 10312 10310 10308 10306 10304 10302 10300 10297 10295 10293 10290 10289 10287 10284 10282 10279 10276 10273 10270 10268 10266 10264 10262 10259 10257 10254 10251 10249 10247 10245 10243 10241 10239 10236 10234 10232 10229 10227 10225 10223 10222 10219 10217 10215 10213 10211 10210 10209 10208 10207 10205 10204 10201 10199 10197 10194
10359 10357 10356 10355 10354 10352 10350 10349 10348 10346 10345 10343 10342 10340 10338 10337 10335 10333 10331 10330 10327 10325 10324 10322 10320 10317 10315 10313 10311 10309 10307 10305 10302 10300 10299 10297 10295 10292 10290 10288 10286 10284 10281 10279 10276 10274 10272 10269 10265 10262 10260 10257 10255 10253 10251 10249 10246 10243 10241 10239 10238 10235 10233 10231 10229 10227 10225 10223 10220 10219 10217 10215 10213 10211 10209 10207 10205 10204 10204 10202 10201 10199 10197 10195 10192 10190
10355 10354 10352 10351 10349 10348 10347 10345 10344 10342 10340 10339 10337 10336 10334 10332 10330 10329 10327 10325 10324 10321 10319 10317 10315 10313 10310 10309 10307 10305 10302 10300 10297 10295 10294 10292 10289 10287 10285 10283 10280 10279 10276 10274 10271 10269 10266 10264 10260 10258 10255 10252 10249 10246 10244 10243 10241 10239 10236 10234 10232 10230 10228 10226 10224 10222 10220 10218 10216 10214 10212 10210 10209 10207 10204 10203 10201 10200 10199 10198 10197 10195 10194 10191 10189 10186
10351 10350 10348 10347 10345 10344 10342 10341 10340 10338 10337 10335 10333 10332 10330 10329 10327 10325 10322 10320 10319 10317 10315 10312 10310 10308 10306 10304 10302 10300 10298 10295 10293 10290 10289 10286 10284 10282 10280 10277 10275 10273 10270 10268 10265 10263 10260 10258 10255 10252 10250 10247 10244 10240 10238 10237 10235 10233 10231 10229 10227 10225 10223 10221 10219 10217 10215 10214 10212 10210 10208 10206 10204 10202 10200 10198 10197 10195 10194 10194 10193 10192 10190 10187 10185 10182
10347 10345 10344 10343 10341 10340 10339 10337 10335 10334 10332 10330 10329 10327 10325 10324 10322 10320 10318 10316 10314 10312 10310 10308 10305 10304 10301 10299 10297 10295 10293 10291 10289 10286 10284 10282 10279 10277 10274 10272 10270 10267 10264 10262 10260 10257 10254 10252 10249 10247 10245 10242 10239 10236 10233 10231 10229 10228 10226 10224 10222 10220 10219 10216 10214 10213 10210 10209 10207 10205 10204 10202 10200 10198 10196 10194 10192 10190 10190 10189 10189 10188 10186 10184 10181 10179
10343 10342 10340 10339 10337 10335 10334 10333 10332 10330 10328 10327 10325 10323 10321 10319 10317 10315 10314 10312 10309 10307 10305 10303 10300 10299 10296 10294 10292 10290 10288 10286 10284 10281 10279 10277 10275 10272 10269 10267 10264 10262 10259 10255 10253 10250 10248 10244 10242 10240 10239 10238 10235 10232 10228 10225 10224 10222 10221 10220 10218 10216 10214 10212 10210 10208 10206 10204 10202 10200 10199 10197 10195 10194 10192 10190 10187 10186 10185 10184 10184 10183 10182 10180 10177 10175
10339 10337 10336 10334 10333 10332 10330 10329 10327 10325 10324 10322 10320 10319 10317 10314 10312 10310 10309 10307 10304 10302 10300 10298 10295 10294 10291 10289 10287 10285 10283 10281 10279 10276 10274 10272 10270 10267 10264 10262 10259 10257 10254 10250 10247 10244 10242 10238 10235 10232 10230 10230 10230 10228 10224 10220 10219 10217 10215 10214 10213 10212 10209 10207 10205 10204 10202 10199 10197 10195 10194 10192 10190 10189 10187 10185 10183 10181 10180 10180 10179 10179 10178 10176 10174 10171